Regional Weather Roundup
Issued by NWS

Home | Current Version | Previous Version | Text Only | Print | Product List | Glossary Off
Versions: 1 2 3 4 5 6 7 8 9 10 11 12 13 14 15 16 17 18 19 20 21 22 23 24 25 26 27 28 29 30 31 32 33 34 35 36 37 38 39 40 41 42 43 44 45 46 47 48 49 50

000
ASUS43 KDMX 170106
RWRIA

WEATHER ROUNDUP FOR IOWA
NATIONAL WEATHER SERVICE DES MOINES IA
700 PM CST FRI FEB 16 2018

NOTE: "FAIR" INDICATES FEW OR NO CLOUDS BELOW 12,000 FEET WITH NO
SIGNIFICANT WEATHER AND/OR OBSTRUCTIONS TO VISIBILITY.

* - THESE STATIONS ARE NOT NWS STATIONS...THUS NOT UNDER NWS
QUALITY CONTROL.  THEY ALSO DO NOT REPORT WEATHER SUCH
AS PRECIPITATION OR FOG.

IAZ001>003-012>014-020>022-031>034-043>046-170200-
   NORTHWEST IOWA

CITY           SKY/WX    TMP DP  RH WIND       PRES   REMARKS
CARROLL *      CLOUDY    25  18  74 S13       30.20F WCI  13
CHEROKEE *     CLEAR     20  13  71 S7        30.16S WCI  12
DENISON *      CLOUDY    25  14  63 S13       30.20F WCI  13
LE MARS *      CLEAR     21  14  73 S12       30.13F WCI   9
ORANGE CITY *  CLEAR     19  16  86 S10       30.11F WCI   8
SHELDON *      CLEAR     18  12  79 S14G20    30.10S WCI   4
SIOUX CITY     CLOUDY    24  15  68 SE12      30.16F WCI  13
SPENCER        CLEAR     18  10  71 S13       30.14S WCI   5
STORM LAKE *   CLEAR     18  10  73 S7        30.15S WCI   8
$$

IAZ055>058-069>071-079>083-090>094-170200-
   SOUTHWEST IOWA

CITY           SKY/WX    TMP DP  RH WIND       PRES   REMARKS
ATLANTIC *     CLOUDY    27  16  63 S8        30.22F WCI  18
AUDUBON *      CLOUDY    23  16  74 CALM      30.21F
CLARINDA *     CLOUDY    25  19  80 S3        30.28F
COUNCIL BLFS * PTCLDY    25  14  63 S8        30.21F WCI  16
CRESTON *      CLOUDY    23  14  68 S9        30.26F WCI  13
HARLAN  *      CLOUDY    25  18  74 S8        30.24F WCI  16
LAMONI         CLOUDY    27   9  46 S5        30.26F WCI  22
RED OAK *      MOCLDY    27  16  63 S7        30.24F WCI  19
SHENANDOAH *   CLOUDY    25  16  68 SE7       30.26F WCI  17
$$

IAZ047>049-059>061-072>074-084-170200-
   CENTRAL IOWA

CITY           SKY/WX    TMP DP  RH WIND       PRES   REMARKS
AMES           CLEAR     18   9  68 S6        30.26S WCI  10
ANKENY *       PTCLDY    21   9  58 S3        30.28F
BOONE *        CLEAR     23  16  74 S9        30.23S WCI  13
CHARITON *     CLOUDY    25   7  46 S6        30.26F WCI  18
DES MOINES     CLOUDY    24  10  55 S6        30.26F WCI  17
GRINNELL*      CLOUDY    19  10  68 CALM      30.29R
KNOXVILLE *    CLOUDY    23   1  39 SE5       30.26F WCI  17
MARSHALLTOWN   CLEAR     19   9  65 S6        30.25S WCI  11
NEWTON *       CLOUDY    19   9  63 S5        30.27F WCI  13
PELLA *        CLOUDY    20   7  56 CALM      30.30S
PERRY *        FAIR      24  16  73 S6        30.25R WCI  17
$$

IAZ004>006-015-016-023>025-035-036-170200-
   NORTH CENTRAL IOWA

CITY           SKY/WX    TMP DP  RH WIND       PRES   REMARKS
ALGONA *       PTCLDY    18 N/A N/A S16       30.15F WCI   3
CLARION *      CLOUDY    12  10  92 S10       30.21F WCI  -1
ESTHERVILLE    CLOUDY    14   9  80 S14       30.12F WCI  -1
FORT DODGE *   CLOUDY    20  11  68 S7        30.20F WCI  11
MASON CITY     CLOUDY    14   6  70 S9        30.22S WCI   2
FOREST CITY *  FAIR      18  10  73 S10       30.20S WCI   6
WEBSTER CITY * CLOUDY    14   7  73 S10       30.20S WCI   1
IOWA FALLS *   FAIR      13   7  76 S9        30.24S WCI   1
$$

IAZ007>011-017>019-026>030-037>042-050>054-066-170200-
   NORTHEAST IOWA

CITY           SKY/WX    TMP DP  RH WIND       PRES   REMARKS
CEDAR RAPIDS   FAIR      18  12  77 SE5       30.27F WCI  11
CHARLES CITY * FAIR      14   9  79 S12       30.23S WCI   0
CLINTON *      FAIR      15   8  73 S6        30.33S WCI   6
DECORAH *      FAIR      16   7  67 SW6       30.22R WCI   7
DUBUQUE        FAIR      12   3  67 SW3       30.27S
MONTICELLO *   FAIR      16   3  57 CALM      30.28F
OELWEIN *      FAIR      10   5  79 SW8       30.25S WCI  -1
WATERLOO       FAIR      13   4  67 SW3       30.27S
$$

IAZ064-065-067-068-078-170200-
   EAST CENTRAL IOWA

CITY           SKY/WX    TMP DP  RH WIND       PRES   REMARKS
DAVENPORT      FAIR      20  10  65 SW3       30.33F
IOWA CITY      FAIR      19   8  62 S5        30.32F WCI  12
MT. PLEASANT * MOCLDY    23  12  63 CALM      30.32F
MUSCATINE *    FAIR      19   9  63 S3        30.34F
QUAD CITIES    FAIR      20  12  71 SW5       30.33S WCI  13
$$

IAZ062-063-075>077-085>089-095>099-170200-
   SOUTHEAST IOWA

CITY           SKY/WX    TMP DP  RH WIND       PRES   REMARKS
BURLINGTON     CLOUDY    24   8  50 CALM      30.32F
FAIRFIELD *    CLOUDY    21  12  68 CALM      30.30F
FORT MADISON * CLOUDY    25  14  63 CALM      30.32F
KEOKUK *       CLOUDY    25   9  50 CALM      30.32F
OSKALOOSA *    FAIR      17   7  65 E3        30.30S
OTTUMWA        CLOUDY    20  10  65 E6        30.29F WCI  12
WASHINGTON *   PTCLDY    18  10  73 SW3       30.33S
$$

ABBREVIATIONS USED IN REMARKS
   TC - TEMPERATURES IN CELSIUS
  WCI - WIND CHILL INDEX
   HX - HEAT INDEX
  VSB - VISIBILITY
$$





USA.gov is the U.S. government's official web portal to all federal, state and local government web resources and services.